Location: Dittelbrunn
(50.0738°N, 10.2196°E)
Time: 04:56:55
(UTC+00:00)

Cosmos 2150 Rocket - Pass Details

Date: 18 September 2020
Orbit: 748 x 808 km, 74.0° (Epoch: 20 October)

Event Time Altitude Azimuth Distance (km) Brightness Sun altitude
Rises 18:46:31 0° 179° (S) 3,262 7.1 -13.6°
Reaches altitude 10° 18:48:59 10° 172° (S) 2,347 6.3 -14.0°
Maximum altitude 18:53:58 41° 104° (ESE) 1,147 4.4 -14.7°
Drops below altitude 10° 18:59:02 10° 36° (NE) 2,393 6.4 -15.5°
Sets 19:01:34 0° 29° (NNE) 3,333 7.2 -15.9°
